Domov               UVHVVR             MKGP            O straneh              
ZDRAVSTVENO VARSTVO RASTLIN
  MREŽA AGROMET. POSTAJ
 ► PROGNOSTIČNA OBVESTILA
AGROMETEOROLOŠKI PODATKI -
ARSO
OBVLADOVANJE TVEGANJ ZARADI
NEUGODNIH VREMENSKIH RAZMER
  ► NARAVNE NESREČE
  ► SUŠA/MOČA
  ► NAMAKANJE
  ► ŽLED (gozdarstvo)
KARTOGRAFSKI PRIKAZI
SPLETNE POVEZAVE
PROJEKTI IN PUBLIKACIJE

AGROMETEOROLOŠKA MREŽA: VREMENSKE POSTAJE IN FENOLOŠKA OPAZOVANJA

Pregled podatkov za lokacijo Podbrezje, meteorološka postaja 855704

Pregled senzorjev na lokaciji

ID Ime Zadnja
vrednost
Datum
zadnje
spremembe
Tip
senzorja
4023 Omočenost lista (U) 0 U 20.6.2018 16:30 A730WET
4024 Padavine (mm) 0 mm 20.6.2018 16:30 Rain-O-Matic
4022 Relativna vlaga 2 m (% RH) 43,12 % RH 20.6.2018 16:30 50YA
4021 Temperatura 2 m (°C) 28,03 °C 20.6.2018 16:30 50YA

Pregled podatkov zadnjih 24 ur

Zap.
št.
Datum in čas Podbrezje
Omočenost
lista
Padavine Relativna
vlaga
2
m
Temperatura
2
m
1 20.6.2018 17:00
2 20.6.2018 16:30
3 20.6.2018 16:00
4 20.6.2018 15:30 0 0 43,1 28
5 20.6.2018 15:00 0 0 43,1 27,9
6 20.6.2018 14:30 0 0 43,8 27,6
7 20.6.2018 14:00 0 0 43,9 27,7
8 20.6.2018 13:30 0 0 44,1 27,4
9 20.6.2018 13:00 0 0 43,4 27,4
10 20.6.2018 12:30 0 0 44,7 27,2
11 20.6.2018 12:00 0 0 46 26,8
12 20.6.2018 11:30 0 0 47,3 26,3
13 20.6.2018 11:00 0 0 48,1 25,8
14 20.6.2018 10:30 0 0 50,3 25,2
15 20.6.2018 10:00 0 0 50,1 25
16 20.6.2018 09:30 0 0 52,3 24,6
17 20.6.2018 09:00 0 0 54,9 23,8
18 20.6.2018 08:30 0 0 56,5 23,1
19 20.6.2018 08:00 0 0 59,9 22,4
20 20.6.2018 07:30 0 0 62,3 22,1
21 20.6.2018 07:00 0 0 66,9 20,5
22 20.6.2018 06:30 0 0 71,7 18,9
23 20.6.2018 06:00 0 0 75,8 17,7
24 20.6.2018 05:30 3 0 85,4 15,2
25 20.6.2018 05:00 6 0 87,6 14,5
26 20.6.2018 04:30 7 0 85,3 14,9
27 20.6.2018 04:00 6 0 84,6 15,1
28 20.6.2018 03:30 6 0 86,4 15
29 20.6.2018 03:00 5 0 84,6 15,5
30 20.6.2018 02:30 3 0 83,4 15,8
31 20.6.2018 02:00 2 0 81,3 16,2
32 20.6.2018 01:30 1 0 78,9 16,8
33 20.6.2018 01:00 1 0 76,9 17,2
34 20.6.2018 00:30 1 0 78,1 17,3
35 20.6.2018 00:00 1 0 73,9 18
36 19.6.2018 23:30 0 0 73,1 18,5
37 19.6.2018 23:00 0 0 69,1 19,3
38 19.6.2018 22:30 0 0 65,8 20,1
39 19.6.2018 22:00 0 0 63,6 20,9
40 19.6.2018 21:30 0 0 63,5 21,4
41 19.6.2018 21:00 0 0 61,7 22
42 19.6.2018 20:30 0 0 58,6 22,4
43 19.6.2018 20:00 0 0 57,6 22,9
44 19.6.2018 19:30 0 0 51,8 24,1
45 19.6.2018 19:00 0 0 47,8 25
46 19.6.2018 18:30 0 0 44,7 25,8
47 19.6.2018 18:00 0 0 44,3 26,1
48 19.6.2018 17:30 0 0 43,1 26,6
© 2011 Ministrstvo za kmetijstvo, gozdarstvo in prehrano. Vse pravice pridržane.